Weather History for International Falls, MN

Change the Weather History Date:

Tuesday, January 22, 2013

  Actual Average Record
Temperature  
Mean Temperature -16 °F 4 °F  
Max Temperature -3 °F 16 °F 38 °F (1968)
Min Temperature -30 °F -7 °F -38 °F (1907)
Degree Days  
Heating Degree Days 81 61  
Month to date heating degree days 1270 1338  
Since 1 July heating degree days 5401 5513  
Cooling Degree Days 0 0  
Month to date cooling degree days 0 0  
Year to date cooling degree days 0 0  
Moisture  
Dew Point -22 °F    
Average Humidity 72    
Maximum Humidity 86    
Minimum Humidity 58    
Precipitation  
Precipitation T in 0.02 in 0.36 in (2012)
Month to date precipitation 1.23 0.48  
Year to date precipitation 1.23 0.48  
Snow  
Snow T in 0.50 in 6.90 in (1982)
Month to date snowfall 11.3 11.3  
Since 1 July snowfall 36.6 42.3  
Snow Depth 14.00 in    
Sea Level Pressure  
Sea Level Pressure 30.32 in    
Wind  
Wind Speed 4 mph (WSW)    
Max Wind Speed 12 mph    
Max Gust Speed 15 mph    
Visibility 10 miles    
Events      
T = Trace of Precipitation, MM = Missing Value Source: NWS Daily Summary

Daily Weather History Graph

Daily Weather History Graph

Search for Another Location

Airport:

Trip Planner

Search our weather history database for the weather conditions in past years. The results will help you decide how hot, cold, wet, or windy it might be!

Date:

Astronomy

Jan. 22, 2013 Rise Set
Actual Time 7:54 AM CST 4:56 PM CST
Civil Twilight 7:19 AM CST 5:31 PM CST
Nautical Twilight 6:41 AM CST 6:10 PM CST
Astronomical Twilight 6:03 AM CST 6:47 PM CST
Moon 1:16 PM CST (1/22) 4:19 AM CST (1/22)
Length of Visible Light 10h 11m
Length of Day
9h 02m
Waxing Gibbous, 83% of the Moon is Illuminated
Jan 22
Waxing Gibbous
Jan 26
Full
Feb 3
Last Quarter
Feb 10
New
Feb 17
First Quarter

Hourly Weather History & Observations

Time (CST) Temp. Windchill Dew Point Humidity Pressure Visibility Wind Dir Wind Speed Gust Speed Precip Events Conditions
12:55 AM -23.1 °F -36.8 °F -27.9 °F 78% 30.33 in 10.0 mi West 4.6 mph - N/A   Mostly Cloudy
1:55 AM -23.1 °F -38.9 °F -27.9 °F 78% 30.35 in 10.0 mi West 5.8 mph - N/A   Clear
2:55 AM -24.0 °F - -29.0 °F 77% 30.35 in 10.0 mi Calm Calm - N/A   Clear
3:55 AM -25.1 °F - -29.9 °F 78% 30.36 in 10.0 mi Calm Calm - N/A   Clear
4:55 AM -25.1 °F -39.1 °F -29.9 °F 78% 30.37 in 10.0 mi West 4.6 mph - N/A   Clear
5:55 AM -26.0 °F -37.5 °F -32.1 °F 73% 30.38 in 10.0 mi West 3.5 mph - N/A   Clear
6:55 AM -27.9 °F - -33.0 °F 77% 30.37 in 10.0 mi Calm Calm - N/A   Clear
7:55 AM -29.9 °F - - N/A% 30.37 in 10.0 mi Calm Calm - N/A   Clear
8:55 AM -27.0 °F - -33.0 °F 73% 30.38 in 10.0 mi Calm Calm - N/A   Clear
9:55 AM -20.0 °F -33.3 °F -25.1 °F 78% 30.38 in 10.0 mi WSW 4.6 mph - N/A   Clear
10:55 AM -15.0 °F -29.3 °F -22.0 °F 71% 30.38 in 10.0 mi West 5.8 mph - N/A   Clear
11:55 AM -11.0 °F -22.8 °F -18.9 °F 68% 30.35 in 10.0 mi West 4.6 mph - N/A   Clear
12:55 PM -8.0 °F -23.9 °F -17.0 °F 65% 30.34 in 10.0 mi WSW 8.1 mph - N/A   Clear
1:55 PM -5.1 °F -19.1 °F -15.0 °F 62% 30.31 in 10.0 mi West 6.9 mph - N/A   Clear
2:55 PM -4.0 °F -17.8 °F -14.1 °F 62% 30.31 in 10.0 mi West 6.9 mph - N/A   Clear
3:55 PM -2.9 °F -11.2 °F -13.0 °F 62% 30.30 in 10.0 mi West 3.5 mph - N/A   Clear
4:55 PM -5.1 °F -13.6 °F -13.0 °F 69% 30.29 in 10.0 mi West 3.5 mph - N/A   Partly Cloudy
5:55 PM -9.0 °F -18.2 °F -14.1 °F 79% 30.28 in 10.0 mi SSW 3.5 mph - N/A   Partly Cloudy
6:55 PM -11.0 °F -22.8 °F -15.0 °F 83% 30.26 in 10.0 mi SSW 4.6 mph - N/A   Mostly Cloudy
7:55 PM -8.0 °F -22.5 °F -14.1 °F 75% 30.25 in 10.0 mi WSW 6.9 mph - N/A   Partly Cloudy
8:55 PM -9.0 °F -23.8 °F -15.0 °F 75% 30.24 in 10.0 mi SW 6.9 mph - N/A   Clear
9:55 PM -11.9 °F -23.8 °F -17.0 °F 78% 30.22 in 10.0 mi SW 4.6 mph - N/A   Clear
10:55 PM -15.0 °F -25.0 °F -18.9 °F 82% 30.22 in 10.0 mi SSW 3.5 mph - N/A   Clear
11:55 PM -16.1 °F - -20.0 °F 82% 30.21 in 10.0 mi Calm Calm - N/A   Overcast